Terminal Aerodrome Forecast
Issued by NWS

Home | Current Version | Previous Version | Text Only | Print | Product List | Glossary On
Versions: 1 2 3 4 5 6 7 8 9 10 11 12 13 14 15 16 17 18 19 20 21 22 23 24 25 26 27 28
000
FTAK31 PANC 232138 AAB
TAFAGK
TAF AMD
PAGK 232138Z 2322/2418 17009KT P6SM SCT200
     FM232300 17014G22KT P6SM SCT200
     FM240800 17010KT P6SM SCT120 BKN200=

USA.gov is the U.S. government's official web portal to all federal, state and local government web resources and services.